This demonstration page uses our WeatherBlox Daily Observations layout. Learn more.

Left ArrowRight Arrow

39.08367, -84.50855

Hourly Observations for March 30, 2017

Temp ( °F °C ) Dew Point ( °F °C ) Humidity (%) Winds ( mph kmh ) Pressure ( in mb ) Visibility ( mi km ) Precip ( " mm )
12:53 am 00:53 Clear 54 12.2 44 6.7 69 69 VRB 3 6 30.01 1016 10 16 0.00 0.00
1:53 am 01:53 Clear 54 12.2 44 6.7 69 69 Calm 29.97 1015 10 16 0.00 0.00
2:53 am 02:53 Mostly Clear 53 11.7 45 7.2 74 74 VRB 3 6 29.96 1014 10 16 0.00 0.00
3:53 am 03:53 Partly Cloudy 53 11.7 45 7.2 74 74 NNE 3 6 29.92 1013 10 16 0.00 0.00
4:53 am 04:53 Mostly Clear 52 11.1 46 7.8 80 80 NNE 5 7 29.89 1012 10 16 0.00 0.00
5:53 am 05:53 Mostly Cloudy with Light Rain 51 10.6 46 7.8 83 83 NW 3 6 29.87 1011 10 16 0.00 0.03
6:53 am 06:53 Mostly Clear 50 10 49 9.4 96 96 Calm 29.85 1011 10 16 0.01 0.25
7:53 am 07:53 Partly Cloudy 49 9.4 48 8.9 97 97 Calm 29.85 1011 10 16 0.00 0.00
8:53 am 08:53 Mostly Cloudy 54 12.2 50 10 87 87 Calm 29.84 1011 10 16 0.00 0.00
9:53 am 09:53 Partly Cloudy 58 14.4 50 10 75 75 Calm 29.83 1010 10 16 0.00 0.00
10:53 am 10:53 Partly Cloudy 62 16.7 53 11.7 73 73 S 8 13 29.80 1009 10 16 0.00 0.00
11:53 am 11:53 Sunny 68 20 57 13.9 68 68 S 10 17 29.75 1008 10 16 0.00 0.00
12:53 pm 12:53 Sunny 72 22.2 58 14.4 61 61 S 14 22 29.70 1006 10 16 0.00 0.00
1:53 pm 13:53 Sunny 76 24.4 53 11.7 45 45 S 23 37 29.66 1004 10 16 0.00 0.00
2:53 pm 14:53 Sunny 77 25 55 12.8 47 47 S 14 22 29.64 1004 10 16 0.00 0.00
3:53 pm 15:53 Mostly Sunny 76 24.4 55 12.8 48 48 S 16 26 29.62 1003 10 16 0.00 0.00
4:53 pm 16:53 Sunny 76 24.4 56 13.3 50 50 SSW 13 20 29.60 1002 10 16 0.00 0.00
5:53 pm 17:53 Mostly Cloudy 75 23.9 54 12.2 48 48 SSW 10 17 29.58 1002 10 16 0.00 0.00
6:53 pm 18:53 Partly Cloudy 72 22.2 56 13.3 57 57 SSW 9 15 29.59 1002 10 16 0.00 0.00
7:53 pm 19:53 Sunny 73 22.8 54 12.2 51 51 SW 12 19 29.60 1002 10 16 0.00 0.00
8:53 pm 20:53 Clear 69 20.6 55 12.8 61 61 SSW 8 13 29.60 1002 10 16 0.00 0.00
9:53 pm 21:53 Partly Cloudy 66 18.9 55 12.8 68 68 Calm 29.60 1002 10 16 0.00 0.00
10:53 pm 22:53 Mostly Cloudy 63 17.2 57 13.9 81 81 SW 3 6 29.60 1002 10 16 0.00 0.00
11:01 pm 23:01 Cloudy with Nearby Thunderstorms 65 18.3 57 13.9 76 76 SW 5 7 29.62 1003 10 16 0.00 0.03
11:37 pm 23:37 Cloudy with Light Rain 60 15.6 58 14.4 93 93 NE 6 9 29.68 1005 10 16 0.05 1.27
11:53 pm 23:53 Cloudy with Heavy Rain 59 15 58 14.4 96 96 N 7 11 29.67 1005 5 8 0.09 2.29

Powered by AerisWeather